When you browse on this site, cookies collect data to enhance your experience and personalize the content and advertising you see.
Visit our Privacy Policy to learn more. By continuing to use the site, you agree to this use of cookies and data.
  • En España
  • Lista de países
  • Para 7 días
  • Temperatura del agua
  • El tiempo en el mapa
  • Informadores
  • user-avatar
    Iniciar sesión

    Tiempo cada hora Luanda

    Hoy, 10 Diciembre, Martes

    Tiempo Temperatura Precipitaciones Viento Presión Humedad
    00:00 +26°C° 0 mm 2 mps 753 mmHg 80%
    01:00 +26°C° 0 mm 2 mps 753 mmHg 83%
    02:00 +26°C° 0 mm 2 mps 753 mmHg 84%
    03:00 +25°C° 0 mm 2 mps 752 mmHg 85%
    04:00 +25°C° 0 mm 1 mps 752 mmHg 86%
    05:00 +26°C° 0 mm 1 mps 753 mmHg 82%
    06:00 +27°C° 0 mm 2 mps 753 mmHg 79%
    07:00 +27°C° 0 mm 2 mps 754 mmHg 75%
    08:00 +29°C° 0.1 mm 2 mps 754 mmHg 69%
    09:00 +30°C° 0.1 mm 2 mps 754 mmHg 63%
    10:00 +31°C° 0.1 mm 2 mps 754 mmHg 57%
    11:00 +31°C° 0 mm 2 mps 753 mmHg 57%
    12:00 +31°C° 0 mm 3 mps 753 mmHg 57%
    13:00 +32°C° 0 mm 4 mps 752 mmHg 58%
    14:00 +32°C° 0 mm 4 mps 752 mmHg 59%
    15:00 +32°C° 0 mm 4 mps 751 mmHg 59%
    16:00 +32°C° 0 mm 4 mps 751 mmHg 60%
    17:00 +30°C° 0 mm 4 mps 751 mmHg 64%
    18:00 +29°C° 0 mm 4 mps 752 mmHg 68%
    19:00 +28°C° 0 mm 4 mps 752 mmHg 72%
    20:00 +27°C° 0 mm 4 mps 753 mmHg 73%
    21:00 +27°C° 0 mm 3 mps 753 mmHg 75%
    22:00 +27°C° 0 mm 3 mps 754 mmHg 76%
    23:00 +26°C° 0 mm 3 mps 754 mmHg 77%

    Mañana, 11 Diciembre, Miércoles

    Tiempo Temperatura Precipitaciones Viento Presión Humedad
    00:00 +26°C° 0 mm 3 mps 753 mmHg 79%
    01:00 +26°C° 0 mm 2 mps 753 mmHg 80%
    02:00 +26°C° 0 mm 2 mps 753 mmHg 79%
    03:00 +26°C° 0 mm 2 mps 753 mmHg 79%
    04:00 +26°C° 0 mm 2 mps 752 mmHg 79%
    05:00 +26°C° 0 mm 2 mps 753 mmHg 77%
    06:00 +27°C° 0 mm 3 mps 753 mmHg 74%
    07:00 +27°C° 0 mm 3 mps 754 mmHg 72%
    08:00 +29°C° 0 mm 2 mps 754 mmHg 66%
    09:00 +30°C° 0 mm 2 mps 754 mmHg 60%
    10:00 +32°C° 0 mm 1 mps 754 mmHg 53%
    11:00 +34°C° 0 mm 2 mps 753 mmHg 49%
    12:00 +35°C° 0 mm 3 mps 752 mmHg 45%
    13:00 +36°C° 0 mm 4 mps 752 mmHg 40%
    14:00 +35°C° 0 mm 5 mps 751 mmHg 45%
    15:00 +34°C° 0 mm 6 mps 751 mmHg 50%
    16:00 +33°C° 0 mm 6 mps 750 mmHg 54%
    17:00 +32°C° 0 mm 6 mps 751 mmHg 59%
    18:00 +29°C° 0 mm 6 mps 751 mmHg 64%
    19:00 +28°C° 0 mm 6 mps 752 mmHg 68%
    20:00 +28°C° 0 mm 5 mps 752 mmHg 70%
    21:00 +27°C° 0 mm 5 mps 753 mmHg 72%
    22:00 +27°C° 0 mm 4 mps 753 mmHg 74%
    23:00 +26°C° 0 mm 4 mps 753 mmHg 77%

    Pasado mañana, 12 Diciembre, Jueves

    Tiempo Temperatura Precipitaciones Viento Presión Humedad
    00:00 +26°C° 0 mm 3 mps 753 mmHg 79%
    01:00 +26°C° 0 mm 3 mps 753 mmHg 82%
    02:00 +25°C° 0 mm 3 mps 753 mmHg 83%
    03:00 +25°C° 0 mm 2 mps 753 mmHg 85%
    04:00 +24°C° 0 mm 2 mps 752 mmHg 87%
    05:00 +25°C° 0 mm 2 mps 753 mmHg 85%
    06:00 +25°C° 0 mm 3 mps 753 mmHg 82%
    07:00 +26°C° 0 mm 3 mps 754 mmHg 80%
    08:00 +28°C° 0 mm 2 mps 754 mmHg 70%
    09:00 +30°C° 0 mm 2 mps 754 mmHg 60%
    10:00 +32°C° 0 mm 2 mps 754 mmHg 50%
    11:00 +34°C° 0 mm 3 mps 753 mmHg 48%
    12:00 +35°C° 0 mm 4 mps 753 mmHg 45%
    13:00 +35°C° 0 mm 5 mps 752 mmHg 42%
    14:00 +35°C° 0 mm 6 mps 752 mmHg 45%
    15:00 +34°C° 0 mm 6 mps 751 mmHg 47%
    16:00 +33°C° 0 mm 6 mps 751 mmHg 50%
    17:00 +32°C° 0 mm 6 mps 751 mmHg 56%
    18:00 +29°C° 0 mm 5 mps 752 mmHg 62%
    19:00 +28°C° 0 mm 5 mps 752 mmHg 67%
    20:00 +27°C° 0 mm 5 mps 753 mmHg 70%
    21:00 +27°C° 0 mm 5 mps 753 mmHg 72%
    22:00 +27°C° 0 mm 4 mps 754 mmHg 74%
    23:00 +26°C° 0 mm 4 mps 754 mmHg 75%

    13 Diciembre, Viernes

    Tiempo Temperatura Precipitaciones Viento Presión Humedad
    00:00 +26°C° 0 mm 4 mps 754 mmHg 76%
    01:00 +26°C° 0 mm 4 mps 753 mmHg 77%
    02:00 +25°C° 0 mm 3 mps 753 mmHg 79%
    03:00 +25°C° 0 mm 3 mps 753 mmHg 80%
    04:00 +24°C° 0 mm 3 mps 753 mmHg 82%
    05:00 +25°C° 0 mm 3 mps 753 mmHg 80%
    06:00 +25°C° 0 mm 2 mps 753 mmHg 79%
    07:00 +25°C° 0 mm 2 mps 754 mmHg 77%
    08:00 +28°C° 0 mm 2 mps 754 mmHg 67%
    09:00 +30°C° 0 mm 2 mps 754 mmHg 56%
    10:00 +32°C° 0 mm 1 mps 754 mmHg 46%
    11:00 +34°C° 0 mm 2 mps 753 mmHg 44%
    12:00 +35°C° 0 mm 4 mps 752 mmHg 41%
    13:00 +36°C° 0 mm 5 mps 752 mmHg 39%
    14:00 +35°C° 0 mm 6 mps 751 mmHg 43%
    15:00 +34°C° 0 mm 6 mps 751 mmHg 46%
    16:00 +32°C° 0 mm 7 mps 751 mmHg 50%
    17:00 +30°C° 0 mm 6 mps 751 mmHg 55%
    18:00 +29°C° 0 mm 6 mps 752 mmHg 60%
    19:00 +28°C° 0 mm 6 mps 752 mmHg 65%
    20:00 +27°C° 0 mm 5 mps 753 mmHg 68%
    21:00 +27°C° 0 mm 5 mps 753 mmHg 70%
    22:00 +27°C° 0 mm 4 mps 754 mmHg 73%
    23:00 +26°C° 0 mm 4 mps 753 mmHg 74%

    14 Diciembre, Sábado

    Tiempo Temperatura Precipitaciones Viento Presión Humedad
    00:00 +26°C° 0 mm 3 mps 753 mmHg 76%
    01:00 +26°C° 0 mm 3 mps 753 mmHg 77%
    02:00 +26°C° 0 mm 3 mps 753 mmHg 77%
    03:00 +26°C° 0 mm 2 mps 753 mmHg 76%
    04:00 +26°C° 0 mm 2 mps 753 mmHg 76%
    05:00 +26°C° 0 mm 2 mps 753 mmHg 75%
    06:00 +27°C° 0 mm 2 mps 753 mmHg 73%
    07:00 +27°C° 0 mm 2 mps 754 mmHg 72%
    08:00 +28°C° 0 mm 2 mps 754 mmHg 68%
    09:00 +28°C° 0 mm 1 mps 754 mmHg 65%
    10:00 +29°C° 0 mm 1 mps 754 mmHg 61%
    11:00 +31°C° 0 mm 2 mps 754 mmHg 55%
    12:00 +32°C° 0 mm 2 mps 753 mmHg 50%
    13:00 +35°C° 0 mm 2 mps 752 mmHg 44%
    14:00 +33°C° 0 mm 3 mps 752 mmHg 49%
    15:00 +31°C° 0 mm 3 mps 751 mmHg 54%
    16:00 +30°C° 0 mm 4 mps 750 mmHg 60%
    17:00 +29°C° 0 mm 4 mps 751 mmHg 63%
    18:00 +29°C° 0 mm 4 mps 751 mmHg 67%
    19:00 +28°C° 0 mm 4 mps 752 mmHg 70%
    20:00 +28°C° 0 mm 4 mps 752 mmHg 71%
    21:00 +27°C° 0 mm 4 mps 753 mmHg 72%
    22:00 +27°C° 0 mm 4 mps 753 mmHg 73%
    23:00 +27°C° 0 mm 3 mps 753 mmHg 74%

    15 Diciembre, Domingo

    Tiempo Temperatura Precipitaciones Viento Presión Humedad
    00:00 +26°C° 0 mm 3 mps 753 mmHg 75%
    01:00 +26°C° 0 mm 3 mps 753 mmHg 76%
    02:00 +26°C° 0 mm 2 mps 752 mmHg 78%
    03:00 +25°C° 0 mm 2 mps 752 mmHg 79%
    04:00 +25°C° 0 mm 1 mps 752 mmHg 81%
    05:00 +25°C° 0 mm 2 mps 752 mmHg 79%
    06:00 +26°C° 0 mm 2 mps 753 mmHg 77%
    07:00 +26°C° 0 mm 2 mps 753 mmHg 75%
    08:00 +28°C° 0 mm 2 mps 753 mmHg 66%
    09:00 +31°C° 0 mm 1 mps 753 mmHg 58%
    10:00 +33°C° 0 mm 1 mps 753 mmHg 49%
    11:00 +34°C° 0 mm 2 mps 752 mmHg 48%
    12:00 +35°C° 0 mm 3 mps 752 mmHg 47%
    13:00 +36°C° 0 mm 4 mps 751 mmHg 46%
    14:00 +35°C° 0 mm 5 mps 750 mmHg 48%
    15:00 +34°C° 0 mm 5 mps 750 mmHg 51%
    16:00 +33°C° 0 mm 5 mps 749 mmHg 54%
    17:00 +32°C° 0 mm 5 mps 749 mmHg 59%
    18:00 +30°C° 0 mm 5 mps 750 mmHg 64%
    19:00 +29°C° 0 mm 4 mps 750 mmHg 70%
    20:00 +28°C° 0 mm 4 mps 751 mmHg 72%
    21:00 +28°C° 0 mm 4 mps 751 mmHg 74%
    22:00 +28°C° 0 mm 3 mps 752 mmHg 76%
    23:00 +28°C° 0 mm 3 mps 752 mmHg 77%
    Mostrar más